| time (UTC) | temp F | wind direction | speed MPH | gust MPH | rain 1hr in | rain 24hr in | rain mn in | humidity % | barometer mb |
| 20260903125715 | 55 | 338 | 2.0 | 4.0 | 0.08 | 0.25 | 0.17 | 93 | 1007.0 |
| 20260903124715 | 55 | 0.0 | 1.0 | 0.08 | 0.25 | 0.17 | 93 | 1007.0 | |
| 20260903123716 | 55 | 0.0 | 1.0 | 0.08 | 0.24 | 0.16 | 93 | 1007.1 | |
| 20260903122715 | 55 | 0 | 1.0 | 2.0 | 0.06 | 0.22 | 0.14 | 93 | 1007.1 |
| 20260903121716 | 55 | 68 | 4.0 | 7.0 | 0.05 | 0.20 | 0.12 | 92 | 1006.9 |
| 20260903120716 | 55 | 180 | 1.0 | 4.0 | 0.04 | 0.18 | 0.10 | 92 | 1006.9 |
| 20260903115735 | 55 | 45 | 2.0 | 4.0 | 0.03 | 0.17 | 0.09 | 92 | 1006.8 |
| 20260903114716 | 55 | 293 | 1.0 | 3.0 | 0.06 | 0.17 | 0.09 | 92 | 1006.9 |
| 20260903113715 | 55 | 45 | 1.0 | 3.0 | 0.07 | 0.16 | 0.08 | 92 | 1007.0 |
| 20260903112715 | 55 | 23 | 1.0 | 2.0 | 0.07 | 0.16 | 0.08 | 92 | 1006.9 |
| 20260903111715 | 56 | 68 | 1.0 | 3.0 | 0.07 | 0.15 | 0.07 | 91 | 1006.9 |
| 20260903110755 | 56 | 158 | 3.0 | 6.0 | 0.06 | 0.14 | 0.06 | 90 | 1006.9 |
| 20260903105715 | 56 | 270 | 2.0 | 4.0 | 0.06 | 0.14 | 0.06 | 89 | 1006.9 |
| 20260903104715 | 56 | 0.0 | 1.0 | 0.03 | 0.11 | 0.03 | 89 | 1006.9 | |
| 20260903103735 | 57 | 0.0 | 2.0 | 0.01 | 0.09 | 0.01 | 89 | 1006.9 | |
| 20260903102715 | 57 | 0.0 | 1.0 | 0.01 | 0.09 | 0.01 | 89 | 1006.7 | |
| 20260903101715 | 56 | 0 | 1.0 | 2.0 | 0.00 | 0.08 | 0.00 | 88 | 1006.6 |
| 20260903100715 | 56 | 0.0 | 1.0 | 0.00 | 0.08 | 0.00 | 88 | 1006.6 | |
| 20260903095715 | 56 | 23 | 1.0 | 3.0 | 0.00 | 0.08 | 0.00 | 88 | 1006.4 |
| 20260903094715 | 56 | 0.0 | 0.0 | 0.00 | 0.08 | 0.00 | 89 | 1006.3 | |
| 20260903093715 | 56 | 0.0 | 1.0 | 0.00 | 0.08 | 0.00 | 89 | 1006.4 | |
| 20260903092716 | 56 | 45 | 1.0 | 4.0 | 0.00 | 0.08 | 0.00 | 89 | 1006.4 |
| 20260903091736 | 56 | 225 | 1.0 | 3.0 | 0.00 | 0.08 | 0.00 | 88 | 1006.4 |
| 20260903090715 | 56 | 45 | 1.0 | 3.0 | 0.00 | 0.08 | 0.00 | 88 | 1006.4 |
| 20260903085715 | 56 | 203 | 3.0 | 5.0 | 0.00 | 0.08 | 0.00 | 88 | 1006.6 |
| 20260903084716 | 56 | 45 | 1.0 | 2.0 | 0.00 | 0.08 | 0.00 | 88 | 1006.7 |
| 20260903083715 | 56 | 23 | 2.0 | 3.0 | 0.00 | 0.08 | 0.00 | 88 | 1006.6 |
| 20260903082715 | 56 | 270 | 2.0 | 6.0 | 0.00 | 0.08 | 0.00 | 87 | 1006.7 |
| 20260903081715 | 56 | 68 | 1.0 | 2.0 | 0.00 | 0.08 | 0.00 | 87 | 1006.6 |
| 20260903080715 | 56 | 0.0 | 1.0 | 0.00 | 0.08 | 0.00 | 87 | 1006.5 | |
| 20260903075715 | 57 | 45 | 2.0 | 4.0 | 0.00 | 0.08 | 0.00 | 87 | 1006.5 |
| 20260903074715 | 57 | 0.0 | 2.0 | 0.00 | 0.08 | 0.00 | 87 | 1006.5 | |
| 20260903073715 | 57 | 0.0 | 0.0 | 0.00 | 0.08 | 0.00 | 87 | 1006.7 | |
| 20260903072715 | 57 | 0.0 | 1.0 | 0.00 | 0.08 | 0.00 | 87 | 1006.6 | |
| 20260903071715 | 57 | 0.0 | 0.0 | 0.00 | 0.08 | 0.00 | 87 | 1006.6 | |
| 20260903070715 | 57 | 68 | 1.0 | 2.0 | 0.00 | 0.08 | 0.00 | 87 | 1006.6 |
| 20260903065736 | 57 | 45 | 1.0 | 2.0 | 0.00 | 0.08 | 0.08 | 87 | 1006.6 |
| 20260903064716 | 57 | 90 | 2.0 | 5.0 | 0.00 | 0.08 | 0.08 | 87 | 1006.6 |
| 20260903063716 | 57 | 0.0 | 0.0 | 0.00 | 0.08 | 0.08 | 87 | 1006.7 | |
| 20260903062736 | 57 | 315 | 1.0 | 2.0 | 0.00 | 0.08 | 0.08 | 87 | 1006.6 |
| 20260903061716 | 57 | 158 | 1.0 | 2.0 | 0.00 | 0.08 | 0.08 | 87 | 1006.7 |
| 20260903060716 | 57 | 0.0 | 1.0 | 0.00 | 0.08 | 0.08 | 87 | 1006.6 | |
| 20260903055716 | 57 | 45 | 1.0 | 4.0 | 0.00 | 0.08 | 0.08 | 88 | 1006.6 |
| 20260903054736 | 56 | 0.0 | 1.0 | 0.00 | 0.08 | 0.08 | 89 | 1006.7 | |
| 20260903053716 | 56 | 90 | 1.0 | 2.0 | 0.00 | 0.08 | 0.08 | 89 | 1006.6 |
| 20260903052716 | 56 | 0.0 | 1.0 | 0.00 | 0.08 | 0.08 | 89 | 1006.6 | |
| 20260903051716 | 56 | 0.0 | 1.0 | 0.00 | 0.08 | 0.08 | 88 | 1006.5 | |
| 20260903050716 | 56 | 0.0 | 0.0 | 0.00 | 0.08 | 0.08 | 88 | 1006.6 | |
| 20260903045716 | 57 | 0.0 | 0.0 | 0.00 | 0.08 | 0.08 | 88 | 1006.5 | |
| 20260903044716 | 57 | 68 | 1.0 | 2.0 | 0.00 | 0.08 | 0.08 | 87 | 1006.4 |
| 20260903043716 | 57 | 0.0 | 1.0 | 0.00 | 0.08 | 0.08 | 87 | 1006.3 | |
| 20260903042736 | 58 | 180 | 1.0 | 1.0 | 0.00 | 0.09 | 0.08 | 87 | 1006.1 |
| 20260903041716 | 57 | 0.0 | 1.0 | 0.00 | 0.09 | 0.08 | 88 | 1006.1 | |
| 20260903040716 | 58 | 0.0 | 0.0 | 0.00 | 0.09 | 0.08 | 88 | 1006.1 | |
| 20260903035716 | 57 | 0.0 | 1.0 | 0.00 | 0.09 | 0.08 | 88 | 1006.0 | |
| 20260903034716 | 57 | 0.0 | 0.0 | 0.00 | 0.09 | 0.08 | 87 | 1005.9 | |
| 20260903033716 | 57 | 0.0 | 0.0 | 0.00 | 0.09 | 0.08 | 86 | 1005.8 | |
| 20260903032716 | 57 | 68 | 1.0 | 2.0 | 0.00 | 0.10 | 0.08 | 86 | 1005.6 |
| 20260903031716 | 57 | 68 | 1.0 | 2.0 | 0.00 | 0.10 | 0.08 | 84 | 1005.5 |
| 20260903030816 | 58 | 68 | 2.0 | 4.0 | 0.00 | 0.10 | 0.08 | 83 | 1005.5 |
| 20260903025716 | 59 | 0.0 | 0.0 | 0.00 | 0.10 | 0.08 | 82 | 1005.4 | |
| 20260903024716 | 60 | 0.0 | 0.0 | 0.00 | 0.12 | 0.08 | 80 | 1005.2 | |
| 20260903023716 | 61 | 0.0 | 0.0 | 0.00 | 0.12 | 0.08 | 75 | 1005.2 | |
| 20260903022716 | 62 | 225 | 3.0 | 5.0 | 0.00 | 0.12 | 0.08 | 72 | 1005.1 |
| 20260903021716 | 62 | 180 | 2.0 | 4.0 | 0.00 | 0.12 | 0.08 | 71 | 1005.0 |
| 20260903020716 | 62 | 225 | 4.0 | 7.0 | 0.00 | 0.12 | 0.08 | 72 | 1005.1 |
| 20260903015716 | 62 | 225 | 4.0 | 6.0 | 0.00 | 0.12 | 0.08 | 72 | 1005.0 |
| 20260903014716 | 62 | 225 | 7.0 | 10.0 | 0.00 | 0.12 | 0.08 | 71 | 1005.1 |
| 20260903013716 | 63 | 225 | 4.0 | 6.0 | 0.00 | 0.12 | 0.08 | 69 | 1005.0 |
| 20260903012756 | 63 | 225 | 2.0 | 4.0 | 0.00 | 0.12 | 0.08 | 68 | 1004.9 |
| 20260903011716 | 64 | 270 | 1.0 | 5.0 | 0.00 | 0.12 | 0.08 | 66 | 1004.8 |
| 20260903010716 | 64 | 225 | 4.0 | 8.0 | 0.00 | 0.12 | 0.08 | 67 | 1004.7 |
| 20260903005716 | 64 | 225 | 4.0 | 8.0 | 0.00 | 0.12 | 0.08 | 68 | 1004.6 |
| 20260903004717 | 63 | 225 | 7.0 | 9.0 | 0.00 | 0.12 | 0.08 | 68 | 1004.6 |
| 20260903003716 | 64 | 225 | 9.0 | 18.0 | 0.00 | 0.12 | 0.08 | 68 | 1004.6 |
| 20260903002716 | 64 | 225 | 5.0 | 8.0 | 0.00 | 0.13 | 0.08 | 72 | 1004.5 |
| 20260903001716 | 62 | 225 | 9.0 | 13.0 | 0.00 | 0.13 | 0.08 | 80 | 1004.4 |
| 20260903000716 | 62 | 23 | 1.0 | 4.0 | 0.00 | 0.13 | 0.08 | 85 | 1004.2 |
| 20260902235736 | 62 | 225 | 4.0 | 6.0 | 0.00 | 0.13 | 0.08 | 86 | 1004.0 |
| 20260902234716 | 62 | 248 | 2.0 | 4.0 | 0.00 | 0.13 | 0.08 | 86 | 1003.9 |
| 20260902233716 | 62 | 225 | 4.0 | 8.0 | 0.00 | 0.13 | 0.08 | 87 | 1003.8 |
| 20260902232716 | 62 | 45 | 2.0 | 4.0 | 0.00 | 0.13 | 0.08 | 88 | 1003.5 |
| 20260902231716 | 60 | 45 | 2.0 | 5.0 | 0.00 | 0.13 | 0.08 | 89 | 1003.5 |
| 20260902230736 | 60 | 158 | 3.0 | 6.0 | 0.00 | 0.13 | 0.08 | 88 | 1003.6 |
| 20260902225716 | 60 | 180 | 2.0 | 6.0 | 0.00 | 0.13 | 0.08 | 87 | 1003.5 |
| 20260902224717 | 60 | 203 | 1.0 | 2.0 | 0.00 | 0.13 | 0.08 | 86 | 1003.2 |
| 20260902223716 | 60 | 225 | 1.0 | 4.0 | 0.01 | 0.13 | 0.08 | 86 | 1003.0 |
| 20260902222716 | 60 | 45 | 4.0 | 10.0 | 0.01 | 0.13 | 0.08 | 86 | 1002.9 |
| 20260902221716 | 60 | 248 | 1.0 | 3.0 | 0.01 | 0.13 | 0.08 | 87 | 1002.8 |
| 20260902220716 | 59 | 225 | 4.0 | 6.0 | 0.01 | 0.13 | 0.08 | 87 | 1002.7 |
| 20260902215716 | 59 | 68 | 1.0 | 2.0 | 0.01 | 0.13 | 0.08 | 88 | 1002.7 |
| 20260902214716 | 59 | 45 | 1.0 | 3.0 | 0.02 | 0.13 | 0.08 | 88 | 1002.8 |
| 20260902213716 | 59 | 0.0 | 4.0 | 0.01 | 0.12 | 0.07 | 88 | 1002.8 | |
| 20260902212716 | 59 | 68 | 1.0 | 3.0 | 0.02 | 0.12 | 0.07 | 88 | 1002.9 |
| 20260902211716 | 59 | 0.0 | 1.0 | 0.03 | 0.12 | 0.07 | 88 | 1002.9 | |
| 20260902210716 | 59 | 23 | 1.0 | 3.0 | 0.03 | 0.12 | 0.07 | 88 | 1002.9 |
| 20260902205736 | 59 | 225 | 3.0 | 4.0 | 0.04 | 0.12 | 0.07 | 88 | 1003.0 |
| 20260902204716 | 59 | 68 | 1.0 | 3.0 | 0.04 | 0.11 | 0.06 | 87 | 1003.0 |
| 20260902203736 | 60 | 270 | 1.0 | 2.0 | 0.05 | 0.11 | 0.06 | 88 | 1003.0 |
| 20260902202716 | 60 | 0.0 | 1.0 | 0.04 | 0.10 | 0.05 | 87 | 1003.3 | |
| 20260902201716 | 60 | 225 | 5.0 | 8.0 | 0.04 | 0.09 | 0.04 | 86 | 1003.1 |
| 20260902200716 | 61 | 45 | 1.0 | 3.0 | 0.04 | 0.09 | 0.04 | 86 | 1003.3 |
| 20260902195716 | 61 | 68 | 2.0 | 4.0 | 0.03 | 0.08 | 0.03 | 84 | 1003.5 |
| 20260902194716 | 61 | 248 | 4.0 | 10.0 | 0.02 | 0.07 | 0.02 | 83 | 1003.8 |
| 20260902193756 | 62 | 248 | 3.0 | 6.0 | 0.01 | 0.06 | 0.01 | 81 | 1003.9 |
| 20260902192716 | 62 | 0 | 2.0 | 4.0 | 0.01 | 0.06 | 0.01 | 79 | 1003.9 |
| 20260902191716 | 63 | 68 | 2.0 | 4.0 | 0.00 | 0.05 | 0.00 | 79 | 1004.1 |
| 20260902190716 | 64 | 203 | 3.0 | 5.0 | 0.00 | 0.05 | 0.00 | 78 | 1004.2 |
| 20260902185716 | 64 | 158 | 4.0 | 7.0 | 0.00 | 0.05 | 0.00 | 76 | 1004.3 |
| 20260902184736 | 65 | 180 | 3.0 | 10.0 | 0.00 | 0.05 | 0.00 | 74 | 1004.3 |
| 20260902183716 | 65 | 68 | 3.0 | 7.0 | 0.00 | 0.05 | 0.00 | 73 | 1004.2 |
| 20260902182736 | 65 | 180 | 1.0 | 5.0 | 0.00 | 0.05 | 0.00 | 72 | 1004.4 |
| 20260902181716 | 65 | 203 | 2.0 | 4.0 | 0.00 | 0.05 | 0.00 | 72 | 1004.4 |
| 20260902180736 | 65 | 225 | 6.0 | 10.0 | 0.00 | 0.05 | 0.00 | 73 | 1004.4 |
| 20260902175716 | 65 | 45 | 2.0 | 4.0 | 0.00 | 0.05 | 0.00 | 73 | 1004.6 |
| 20260902174716 | 65 | 270 | 1.0 | 4.0 | 0.00 | 0.05 | 0.00 | 73 | 1004.6 |
| 20260902173716 | 65 | 158 | 3.0 | 7.0 | 0.00 | 0.05 | 0.00 | 73 | 1004.6 |
| 20260902172716 | 66 | 225 | 9.0 | 14.0 | 0.00 | 0.05 | 0.00 | 69 | 1004.6 |
| 20260902171716 | 66 | 248 | 3.0 | 5.0 | 0.00 | 0.05 | 0.00 | 69 | 1004.7 |
| 20260902170716 | 66 | 225 | 2.0 | 4.0 | 0.00 | 0.05 | 0.00 | 69 | 1004.6 |
| 20260902165716 | 65 | 68 | 2.0 | 4.0 | 0.00 | 0.05 | 0.00 | 72 | 1004.6 |
| 20260902164716 | 64 | 225 | 3.0 | 7.0 | 0.00 | 0.05 | 0.00 | 74 | 1004.7 |
| 20260902163716 | 64 | 0.0 | 1.0 | 0.00 | 0.05 | 0.00 | 75 | 1004.7 | |
| 20260902162736 | 62 | 0.0 | 1.0 | 0.00 | 0.05 | 0.00 | 80 | 1004.7 | |
| 20260902161716 | 61 | 0.0 | 2.0 | 0.00 | 0.05 | 0.00 | 83 | 1004.9 | |
| 20260902160716 | 60 | 0.0 | 1.0 | 0.00 | 0.05 | 0.00 | 86 | 1004.9 | |
| 20260902155716 | 60 | 0.0 | 1.0 | 0.00 | 0.05 | 0.00 | 89 | 1005.0 | |
| 20260902154716 | 60 | 0.0 | 0.0 | 0.00 | 0.05 | 0.00 | 90 | 1005.1 | |
| 20260902153716 | 59 | 0.0 | 0.0 | 0.00 | 0.05 | 0.00 | 90 | 1005.2 | |
| 20260902152756 | 59 | 0.0 | 0.0 | 0.00 | 0.05 | 0.00 | 91 | 1005.4 | |
| 20260902151716 | 59 | 0.0 | 0.0 | 0.00 | 0.05 | 0.00 | 92 | 1005.5 | |
| 20260902150716 | 58 | 0.0 | 1.0 | 0.00 | 0.05 | 0.00 | 92 | 1005.7 | |
| 20260902145735 | 58 | 0.0 | 0.0 | 0.00 | 0.05 | 0.00 | 93 | 1005.9 | |
| 20260902144716 | 57 | 68 | 1.0 | 2.0 | 0.00 | 0.05 | 0.00 | 93 | 1006.0 |
| 20260902143716 | 57 | 0.0 | 2.0 | 0.00 | 0.05 | 0.00 | 93 | 1006.2 | |
| 20260902142715 | 57 | 0.0 | 0.0 | 0.00 | 0.05 | 0.00 | 93 | 1006.2 | |
| 20260902141716 | 57 | 0.0 | 0.0 | 0.00 | 0.05 | 0.00 | 94 | 1006.2 | |
| 20260902140716 | 57 | 68 | 1.0 | 3.0 | 0.00 | 0.05 | 0.00 | 94 | 1006.3 |
| 20260902135716 | 57 | 0.0 | 0.0 | 0.00 | 0.05 | 0.00 | 94 | 1006.4 | |
| 20260902134716 | 57 | 0.0 | 0.0 | 0.00 | 0.05 | 0.00 | 94 | 1006.6 | |
| 20260902133716 | 57 | 0.0 | 2.0 | 0.00 | 0.05 | 0.00 | 94 | 1006.7 | |
| 20260902132756 | 57 | 0.0 | 1.0 | 0.00 | 0.05 | 0.00 | 94 | 1006.7 | |
| 20260902131716 | 57 | 0.0 | 1.0 | 0.00 | 0.05 | 0.00 | 94 | 1006.7 | |
| 20260902130716 | 57 | 0.0 | 0.0 | 0.00 | 0.05 | 0.00 | 94 | 1006.7 |